Terug naar catalogus

NOAA 16 DEB

ActiefSSO
NORAD 41289·DEBRIS·🇺🇸 United States

Gelanceerd Sep 21, 2000 vanaf Vandenberg Space Force Base

Loading…

Volgende Passages (komende 24 uur)

TLE

VersSource: Space-Track

Epoch: Sep 14, 2026, 12:01 UTC

1 41289U 00055GR  26257.50072616  .00001847  00000-0  90451-3 0  9995
2 41289  98.6439 273.2102 0032679 355.6188   4.4698 14.18781367551384

Volg NOAA 16 DEB in realtime met AllMySat

Download on the App Store